Fort Dodge, IA

3:37 AM CDT on October 19, 2017 (GMT -0500)
Fort Dodge Regional

Weather History for KFOD - May, 2013

Change the Weather History Date:

Monday, May 27, 2013

  Actual Average Record
Temperature  
Mean Temperature 62 °F -  
Max Temperature 68 °F 75 °F 93 °F (2012)
Min Temperature 55 °F 53 °F 38 °F (1971)
Degree Days  
Heating Degree Days 4    
Growing Degree Days 12 (Base 50)    
Moisture  
Dew Point 57 °F    
Average Humidity 87    
Maximum Humidity 94    
Minimum Humidity 73    
Precipitation  
Precipitation 0.00 in - - ()
Sea Level Pressure  
Sea Level Pressure 29.81 in    
Wind  
Wind Speed 12 mph (East)    
Max Wind Speed 34 mph    
Max Gust Speed 41 mph    
Visibility 9 miles    
Events Thunderstorm    
Averages and records for this station are not official NWS values.
T = Trace of Precipitation, MM = Missing Value Source: NWS Daily Summary

Daily Weather History Graph

Daily Weather History Graph

Search for Another Location

Airport or City:

Trip Planner

Search our weather history database for the weather conditions in past years. The results will help you decide how hot, cold, wet, or windy it might be!

Date:

Astronomy

May. 27, 2013 Rise Set
Actual Time 5:44 AM CDT 8:43 PM CDT
Civil Twilight 5:10 AM CDT 9:17 PM CDT
Nautical Twilight 4:28 AM CDT 10:00 PM CDT
Astronomical Twilight 3:37 AM CDT 10:51 PM CDT
Moon 11:22 PM CDT (5/27) 8:23 AM CDT (5/27)
Length of Visible Light 16h 06m
Length of Day
14h 59m
Waning Gibbous, 91% of the Moon is Illuminated
May 27
Waning Gibbous
May 31
Last Quarter
Jun 8
New
Jun 16
First Quarter
Jun 23
Full

Hourly Weather History & Observations

Time (CDT) Temp. Dew Point Humidity Pressure Visibility Wind Dir Wind Speed Gust Speed Precip Events Conditions
12:15 AM 55.4 °F 51.8 °F 88% 29.99 in 1.2 mi ESE 24.2 mph 28.8 mph N/A Thunderstorm Thunderstorm
12:35 AM 55.4 °F 51.8 °F 88% 29.98 in 3.0 mi ESE 19.6 mph 25.3 mph N/A Thunderstorm Thunderstorm
12:55 AM 55.4 °F 51.8 °F 88% 29.98 in 5.0 mi ESE 17.3 mph 21.9 mph N/A Thunderstorm Thunderstorm
1:15 AM 55.4 °F 51.8 °F 88% 29.96 in 4.0 mi SE 16.1 mph 25.3 mph N/A Thunderstorm Thunderstorm
1:35 AM 55.4 °F 51.8 °F 88% 29.91 in 3.0 mi ESE 29.9 mph 35.7 mph N/A Thunderstorm Overcast
1:55 AM 55.4 °F 53.6 °F 94% 29.94 in 5.0 mi SE 21.9 mph 27.6 mph N/A Thunderstorm Overcast
2:15 AM 55.4 °F 53.6 °F 94% 29.95 in 4.0 mi SE 12.7 mph 25.3 mph N/A   Overcast
2:35 AM 55.4 °F 53.6 °F 94% 29.88 in 5.0 mi ESE 16.1 mph - N/A   Mostly Cloudy
2:55 AM 55.4 °F 53.6 °F 94% 29.90 in 6.0 mi ESE 8.1 mph - N/A Thunderstorm Thunderstorm
3:15 AM 57.2 °F 55.4 °F 94% 29.88 in 10.0 mi South 3.5 mph - N/A   Mostly Cloudy
3:35 AM 55.4 °F 53.6 °F 94% 29.83 in 8.0 mi ENE 9.2 mph - N/A   Partly Cloudy
3:55 AM 55.4 °F 53.6 °F 94% 29.84 in 5.0 mi ESE 15.0 mph 18.4 mph N/A   Mostly Cloudy
4:15 AM 55.4 °F 53.6 °F 94% 29.85 in 4.0 mi SE 9.2 mph 20.7 mph N/A   Overcast
4:35 AM 57.2 °F 55.4 °F 94% 29.94 in 8.0 mi West 12.7 mph 23.0 mph N/A Thunderstorm Overcast
4:55 AM 57.2 °F 53.6 °F 88% 29.95 in 5.0 mi Calm Calm - N/A Thunderstorm Mostly Cloudy
5:15 AM 57.2 °F 55.4 °F 94% 29.94 in 2.5 mi ENE 6.9 mph - N/A   Mostly Cloudy
5:35 AM 57.2 °F 53.6 °F 88% 29.90 in 3.0 mi East 10.4 mph - N/A Thunderstorm Mostly Cloudy
5:55 AM 55.4 °F 53.6 °F 94% 29.80 in 3.0 mi East 27.6 mph 33.4 mph N/A Thunderstorm Overcast
6:15 AM 55.4 °F 53.6 °F 94% 29.72 in 4.0 mi East 34.5 mph 41.4 mph N/A   Overcast
6:35 AM 55.4 °F 53.6 °F 94% 29.74 in 10.0 mi ESE 27.6 mph 36.8 mph N/A   Overcast
6:55 AM 57.2 °F 55.4 °F 94% 29.76 in 10.0 mi ESE 19.6 mph 26.5 mph N/A   Overcast
7:15 AM 57.2 °F 55.4 °F 94% 29.79 in 10.0 mi SE 15.0 mph 21.9 mph N/A   Overcast
7:35 AM 57.2 °F 55.4 °F 94% 29.81 in 10.0 mi Calm Calm - N/A   Overcast
7:55 AM 57.2 °F 55.4 °F 94% 29.79 in 10.0 mi NNE 4.6 mph - N/A   Overcast
8:15 AM 57.2 °F 55.4 °F 94% 29.80 in 10.0 mi North 4.6 mph - N/A   Overcast
8:35 AM 57.2 °F 55.4 °F 94% 29.82 in 10.0 mi NNE 5.8 mph - N/A   Overcast
8:55 AM 57.2 °F 55.4 °F 94% 29.82 in 10.0 mi NNE 8.1 mph - N/A   Overcast
9:15 AM 59.0 °F 55.4 °F 88% 29.83 in 10.0 mi ENE 10.4 mph - N/A   Overcast
9:35 AM 59.0 °F 55.4 °F 88% 29.82 in 10.0 mi NE 9.2 mph - N/A   Overcast
9:55 AM 60.8 °F 57.2 °F 88% 29.80 in 10.0 mi ENE 10.4 mph - N/A   Mostly Cloudy
10:15 AM 60.8 °F 57.2 °F 88% 29.79 in 10.0 mi ENE 12.7 mph - N/A   Overcast
10:35 AM 60.8 °F 57.2 °F 88% 29.77 in 10.0 mi ENE 12.7 mph - N/A   Overcast
10:55 AM 60.8 °F 57.2 °F 88% 29.77 in 10.0 mi SSE 3.5 mph - N/A   Overcast
11:15 AM 60.8 °F 57.2 °F 88% 29.77 in 10.0 mi Calm Calm - N/A   Overcast
11:35 AM 62.6 °F 59.0 °F 88% 29.76 in 10.0 mi ESE 4.6 mph - N/A   Overcast
11:55 AM 64.4 °F 59.0 °F 83% 29.76 in 10.0 mi South 5.8 mph - N/A   Overcast
12:15 PM 64.4 °F 57.2 °F 77% 29.77 in 10.0 mi South 4.6 mph - N/A   Mostly Cloudy
12:35 PM 66.2 °F 57.2 °F 73% 29.77 in 10.0 mi SSE 4.6 mph - N/A   Overcast
12:55 PM 66.2 °F 59.0 °F 78% 29.78 in 10.0 mi South 5.8 mph - N/A   Overcast
1:15 PM 66.2 °F 60.8 °F 83% 29.78 in 10.0 mi South 5.8 mph - N/A   Overcast
1:35 PM 66.2 °F 59.0 °F 78% 29.78 in 10.0 mi SSW 8.1 mph - N/A   Overcast
1:55 PM 64.4 °F 59.0 °F 83% 29.79 in 10.0 mi WSW 5.8 mph - N/A   Overcast
2:15 PM 64.4 °F 59.0 °F 83% 29.79 in 10.0 mi SSW 8.1 mph - N/A   Overcast
2:35 PM 66.2 °F 60.8 °F 83% 29.79 in 10.0 mi SW 9.2 mph - N/A   Overcast
2:55 PM 66.2 °F 60.8 °F 83% 29.78 in 10.0 mi WNW 9.2 mph - N/A   Mostly Cloudy
3:15 PM 66.2 °F 59.0 °F 78% 29.78 in 10.0 mi West 6.9 mph - N/A   Overcast
3:35 PM 66.2 °F 59.0 °F 78% 29.78 in 10.0 mi West 9.2 mph - N/A   Overcast
3:55 PM 66.2 °F 60.8 °F 83% 29.77 in 10.0 mi West 5.8 mph - N/A   Overcast
4:15 PM 66.2 °F 60.8 °F 83% 29.77 in 10.0 mi West 6.9 mph - N/A   Overcast
4:35 PM 66.2 °F 60.8 °F 83% 29.76 in 10.0 mi WSW 5.8 mph - N/A   Overcast
4:55 PM 68.0 °F 60.8 °F 78% 29.76 in 10.0 mi West 6.9 mph - N/A   Overcast
5:15 PM 66.2 °F 60.8 °F 83% 29.76 in 10.0 mi West 4.6 mph - N/A   Overcast
5:35 PM 66.2 °F 60.8 °F 83% 29.76 in 10.0 mi West 4.6 mph - N/A   Overcast
5:55 PM 66.2 °F 60.8 °F 83% 29.76 in 10.0 mi WNW 6.9 mph - N/A   Overcast
6:15 PM 66.2 °F 60.8 °F 83% 29.75 in 10.0 mi NW 5.8 mph - N/A   Mostly Cloudy
6:35 PM 66.2 °F 59.0 °F 78% 29.75 in 10.0 mi NNW 4.6 mph - N/A   Mostly Cloudy
6:55 PM 64.4 °F 59.0 °F 83% 29.75 in 10.0 mi North 3.5 mph - N/A   Overcast
7:15 PM 64.4 °F 59.0 °F 83% 29.76 in 10.0 mi NNE 3.5 mph - N/A   Mostly Cloudy
7:35 PM 64.4 °F 59.0 °F 83% 29.76 in 10.0 mi Calm Calm - N/A   Mostly Cloudy
7:55 PM 64.4 °F 59.0 °F 83% 29.76 in 10.0 mi NE 3.5 mph - N/A   Overcast
8:15 PM 64.4 °F 59.0 °F 83% 29.77 in 10.0 mi ENE 3.5 mph - N/A   Overcast
8:35 PM 62.6 °F 59.0 °F 88% 29.76 in 10.0 mi NNE 3.5 mph - N/A   Overcast
8:55 PM 62.6 °F 59.0 °F 88% 29.76 in 10.0 mi NNE 3.5 mph - N/A   Overcast
9:15 PM 62.6 °F 59.0 °F 88% 29.75 in 10.0 mi NE 3.5 mph - N/A   Overcast
9:35 PM 62.6 °F 59.0 °F 88% 29.75 in 10.0 mi ENE 4.6 mph - N/A   Overcast
9:55 PM 62.6 °F 59.0 °F 88% 29.75 in 10.0 mi ENE 3.5 mph - N/A   Overcast
10:15 PM 62.6 °F 59.0 °F 88% 29.75 in 10.0 mi NE 3.5 mph - N/A   Overcast
10:35 PM 62.6 °F 59.0 °F 88% 29.76 in 10.0 mi ESE 4.6 mph - N/A   Overcast
10:55 PM 60.8 °F 59.0 °F 94% 29.76 in 10.0 mi ENE 3.5 mph - N/A   Overcast
11:15 PM 60.8 °F 59.0 °F 94% 29.76 in 10.0 mi East 3.5 mph - N/A   Overcast
11:35 PM 60.8 °F 59.0 °F 94% 29.75 in 10.0 mi Calm Calm - N/A   Overcast
11:55 PM 62.6 °F 59.0 °F 88% 29.74 in 10.0 mi NNE 4.6 mph - N/A   Overcast